Jenks, OK

4:41 AM CST on February 27, 2017 (GMT -0600)
Jones Jr.

Weather History for KRVS - May, 2014

Change the Weather History Date:

Monday, May 19, 2014

  Actual Average (KTUL) Record (KTUL)
Temperature  
Mean Temperature 73 °F -  
Max Temperature 84 °F 80 °F 96 °F (2006)
Min Temperature 62 °F 59 °F 46 °F (1968)
Cooling Degree Days 8    
Growing Degree Days 23 (Base 50)    
Moisture  
Dew Point 59 °F    
Average Humidity 67    
Maximum Humidity 90    
Minimum Humidity 38    
Precipitation  
Precipitation 0.00 in - - ()
Sea Level Pressure  
Sea Level Pressure 29.91 in    
Wind  
Wind Speed 12 mph (South)    
Max Wind Speed 25 mph    
Max Gust Speed 36 mph    
Visibility 10 miles    
Events      
Averages and records for this station are not official NWS values.
T = Trace of Precipitation, MM = Missing Value Source: NWS Daily Summary

Daily Weather History Graph

Daily Weather History Graph

Search for Another Location

Airport or City:

Trip Planner

Search our weather history database for the weather conditions in past years. The results will help you decide how hot, cold, wet, or windy it might be!

Date:

Astronomy

May. 19, 2014 Rise Set
Actual Time 6:15 AM CDT 8:26 PM CDT
Civil Twilight 5:46 AM CDT 8:55 PM CDT
Nautical Twilight 5:10 AM CDT 9:30 PM CDT
Astronomical Twilight 4:32 AM CDT 10:08 PM CDT
Moon 12:16 AM CDT (5/19) 11:10 AM CDT (5/19)
Length of Visible Light 15h 08m
Length of Day
14h 11m
Waning Gibbous, 71% of the Moon is Illuminated
May 19
Waning Gibbous
May 21
Last Quarter
May 28
New
Jun 5
First Quarter
Jun 12
Full

Hourly Weather History & Observations

Time (CDT) Temp. Heat Index Dew Point Humidity Pressure Visibility Wind Dir Wind Speed Gust Speed Precip Events Conditions
12:53 AM 64.0 °F - 60.1 °F 87% 30.01 in 10.0 mi SSE 6.9 mph - N/A   Clear
1:53 AM 63.0 °F - 59.0 °F 87% 29.99 in 10.0 mi SSE 8.1 mph - N/A   Clear
2:53 AM 62.1 °F - 59.0 °F 90% 29.99 in 10.0 mi SSE 6.9 mph - N/A   Clear
3:25 AM 62.6 °F - 59.0 °F 88% 29.96 in 9.0 mi SSE 9.2 mph - N/A   Partly Cloudy
3:44 AM 62.6 °F - 59.0 °F 88% 29.96 in 9.0 mi SSE 8.1 mph - N/A   Mostly Cloudy
3:53 AM 62.1 °F - 59.0 °F 90% 29.97 in 9.0 mi SSE 6.9 mph - N/A   Mostly Cloudy
4:53 AM 62.1 °F - 59.0 °F 90% 29.97 in 8.0 mi South 8.1 mph - N/A   Mostly Cloudy
5:41 AM 62.6 °F - 59.0 °F 88% 29.94 in 9.0 mi SSE 10.4 mph - N/A   Scattered Clouds
5:53 AM 62.1 °F - 59.0 °F 90% 29.96 in 9.0 mi South 8.1 mph - N/A   Partly Cloudy
6:53 AM 63.0 °F - 59.0 °F 87% 29.97 in 8.0 mi South 10.4 mph - N/A   Clear
8:53 AM 69.1 °F - 61.0 °F 75% 29.95 in 10.0 mi South 15.0 mph 23.0 mph N/A   Partly Cloudy
9:53 AM 73.9 °F - 60.1 °F 62% 29.94 in 10.0 mi South 18.4 mph 29.9 mph N/A   Partly Cloudy
10:53 AM 78.1 °F - 57.9 °F 50% 29.92 in 10.0 mi South 20.7 mph 31.1 mph N/A   Clear
11:53 AM 80.1 °F 80.6 °F 57.9 °F 47% 29.89 in 10.0 mi South 18.4 mph 32.2 mph N/A   Clear
1:53 PM 82.9 °F 82.4 °F 57.0 °F 41% 29.86 in 10.0 mi South 20.7 mph 31.1 mph N/A   Clear
2:53 PM 84.0 °F 83.5 °F 57.9 °F 41% 29.85 in 10.0 mi South 24.2 mph 35.7 mph N/A   Clear
3:53 PM 84.9 °F 83.9 °F 57.0 °F 38% 29.84 in 10.0 mi SSW 25.3 mph 34.5 mph N/A   Clear
4:53 PM 84.9 °F 84.4 °F 59.0 °F 41% 29.83 in 10.0 mi South 20.7 mph 28.8 mph N/A   Clear
5:53 PM 82.9 °F 83.2 °F 60.1 °F 46% 29.84 in 10.0 mi South 17.3 mph 27.6 mph N/A   Clear
6:53 PM 82.0 °F 82.7 °F 61.0 °F 49% 29.83 in 10.0 mi South 19.6 mph 26.5 mph N/A   Clear
7:53 PM 80.1 °F 81.1 °F 61.0 °F 52% 29.85 in 10.0 mi South 11.5 mph - N/A   Clear
8:53 PM 78.1 °F - 61.0 °F 56% 29.86 in 10.0 mi South 15.0 mph 21.9 mph N/A   Clear
9:53 PM 77.0 °F - 61.0 °F 58% 29.86 in 10.0 mi South 10.4 mph 18.4 mph N/A   Clear
10:53 PM 75.0 °F - 62.1 °F 64% 29.86 in 10.0 mi South 15.0 mph 24.2 mph N/A   Clear
11:53 PM 75.0 °F - 62.1 °F 64% 29.86 in 10.0 mi South 17.3 mph - N/A   Clear